CAPE
nan nan nan nan nan nan nan nan nan nan nan nan nan nan nan nan nan nan nan nan nan nan nan nan nan nan nan nan 18 18 54 71 77 77 77 79 81 81 89 96 96 103 96 88 88 81 70 69 69 70 86 115 148 148 183 189 189 169 149 139 139 128 128 136 136 151 173 195 217 217 227 244 270 270 313 345 355 355 331 279 279 279 302 318 318 300
nan nan nan nan nan nan nan nan nan nan nan nan nan nan nan nan nan nan nan nan nan nan nan nan nan nan nan nan 15 15 48 61 63 63 67 73 81 81 86 88 88 86 77 67 67 63 59 60 60 71 95 119 133 133 140 129 129 116 104 103 103 92 96 103 103 124 153 184 207 207 230 254 290 290 321 345 339 339 315 271 271 281 302 321 321 302
nan nan nan nan nan nan nan nan nan nan nan nan nan nan nan nan nan nan nan nan nan nan nan nan nan nan nan nan 22 22 38 49 54 54 59 65 73 73 74 71 71 67 60 56 56 53 55 65 65 75 96 108 108 108 98 91 91 84 79 73 73 72 76 79 79 96 127 168 201 201 232 265 307 307 316 319 313 313 288 281 281 305 338 332 332 323
nan nan nan nan nan nan nan nan nan nan nan nan nan nan nan nan nan nan nan nan nan nan nan nan nan nan nan nan 5 5 34 40 45 45 50 57 57 57 57 53 53 50 50 50 50 52 59 70 70 81 86 87 83 83 74 71 71 63 60 60 60 61 67 74 74 86 113 147 186 186 221 268 286 286 281 260 257 257 260 274 274 319 336 344 344 323
nan nan nan nan nan nan nan nan nan nan nan nan nan nan nan nan nan nan nan nan nan nan nan nan nan nan nan nan 2 2 29 31 33 33 39 43 43 43 41 41 41 41 43 48 48 58 65 72 72 77 71 70 62 62 62 56 56 51 49 49 49 56 64 74 74 91 114 143 178 178 204 236 255 255 247 232 230 230 225 250 250 283 297 305 305 306
nan nan nan nan nan nan nan nan nan nan nan nan nan nan nan nan nan nan nan nan nan nan nan nan nan nan nan nan 7 7 26 22 22 22 26 29 29 29 29 35 35 36 44 51 51 57 67 67 67 64 58 56 55 55 53 49 49 45 42 46 46 53 66 83 83 103 125 144 157 157 178 195 213 213 205 198 201 201 196 214 214 258 262 273 273 281
nan nan nan nan nan nan nan nan nan nan nan nan nan nan nan nan nan nan nan nan nan nan nan nan nan nan nan nan 17 17 15 7 7 7 8 12 14 14 18 23 23 33 40 53 53 60 60 54 54 50 47 49 50 50 47 44 44 43 44 50 50 60 71 91 91 110 127 131 142 142 151 161 165 165 168 166 165 165 175 196 196 233 253 259 259 273
nan nan nan nan nan nan nan nan nan nan nan nan nan nan nan nan nan nan nan nan nan nan nan nan nan nan nan nan nan nan nan nan nan nan nan nan 0 0 3 11 11 17 28 36 36 44 41 42 42 45 45 46 45 45 44 44 44 44 54 64 64 72 81 95 95 99 100 102 103 103 105 107 108 108 115 121 123 123 133 140 140 154 184 209 209 231
nan nan nan nan nan nan nan nan nan nan nan nan nan nan nan nan nan nan nan nan nan nan nan nan nan nan nan nan nan nan nan nan nan nan nan nan nan nan 1 8 8 15 26 33 33 40 40 40 40 41 44 44 43 43 42 42 42 46 56 68 68 74 78 80 80 83 86 90 91 91 95 96 98 98 104 109 111 111 112 113 113 125 139 168 168 186
nan nan nan nan nan nan nan 0 nan nan nan nan nan nan nan nan 4 4 2 nan nan nan 1 nan nan nan nan nan nan nan nan nan nan nan 0 nan 1 1 0 1 1 3 21 32 32 38 38 39 39 39 39 40 38 38 39 41 41 48 58 69 69 71 69 74 74 75 77 81 85 85 85 89 90 90 92 94 98 98 99 100 100 104 118 141 141 157
nan nan nan nan nan nan nan nan nan nan nan nan nan nan nan nan 9 9 5 1 1 1 2 nan nan nan nan nan nan nan nan nan nan nan nan nan nan nan nan 0 0 5 17 23 23 28 30 34 34 36 34 33 32 32 34 38 38 48 56 63 63 65 60 66 66 69 74 77 80 80 83 84 85 85 88 89 90 90 91 96 96 101 110 123 123 149
nan nan nan nan nan nan 1 nan nan nan nan nan 1 1 10 8 12 12 5 2 2 1 0 nan nan nan nan nan nan nan nan nan nan nan nan nan nan nan nan nan nan nan 0 5 5 9 21 28 28 28 24 19 26 26 32 34 34 48 52 55 55 56 57 63 63 66 69 75 74 74 77 80 81 81 85 90 90 90 94 100 100 108 113 121 121 141
nan nan nan nan nan 3 4 2 2 2 12 14 14 14 12 14 8 8 1 1 1 1 0 nan nan nan nan nan nan nan nan nan nan nan nan nan nan nan nan nan nan nan nan nan nan nan 4 16 16 13 14 11 22 22 33 40 40 47 50 51 51 55 55 59 59 61 63 66 67 67 72 75 78 78 86 88 96 96 97 104 104 109 119 133 133 148
nan nan nan nan nan 0 5 7 11 11 13 17 20 20 19 8 0 0 nan nan nan 0 0 nan nan nan nan nan nan nan nan nan nan nan nan nan nan nan nan nan nan nan nan nan nan nan nan nan nan nan 1 4 14 14 32 42 42 46 46 45 45 49 51 56 56 54 60 59 61 61 65 71 73 73 80 92 97 97 102 107 107 113 126 135 135 151
3 1 0 0 0 1 6 11 14 14 18 21 22 22 10 0 nan nan nan 0 0 0 nan nan nan nan nan nan nan nan nan nan nan nan nan nan nan nan nan nan nan nan nan nan nan nan nan nan nan nan nan nan 6 6 25 32 32 43 40 41 41 44 50 48 48 50 53 53 60 60 63 66 74 74 81 89 93 93 98 104 104 115 125 138 138 155
3 2 2 3 3 4 8 12 17 17 21 22 18 18 0 nan nan nan nan nan nan nan nan nan nan nan nan nan nan nan nan nan nan nan nan nan nan nan nan nan nan nan nan nan nan nan nan nan nan nan nan 0 24 24 30 34 34 36 37 38 38 41 45 47 47 49 50 53 57 57 63 67 70 70 79 83 92 92 97 103 103 114 124 138 138 161
3 2 3 5 5 5 7 12 26 26 27 20 13 13 nan nan nan nan nan nan nan nan nan nan nan nan nan nan nan nan nan nan nan nan nan nan nan nan nan nan nan nan nan nan nan nan nan nan nan nan nan 10 27 27 28 29 29 31 34 38 38 40 44 46 46 46 48 48 55 55 61 65 69 69 75 83 88 88 98 104 104 115 130 148 148 160
2 3 4 7 7 6 5 10 22 22 27 18 0 0 nan nan nan nan nan nan nan 0 0 nan nan nan nan nan nan nan nan nan nan nan nan nan nan nan nan nan nan nan nan nan nan nan nan nan nan nan nan 16 23 23 26 28 28 31 35 38 38 39 40 40 40 41 42 46 50 50 54 62 69 69 75 80 84 84 94 104 104 117 128 147 147 167
2 5 6 8 8 7 5 14 30 30 29 12 nan nan nan nan nan nan nan 1 1 0 0 0 0 nan nan nan nan nan nan nan nan nan nan nan nan nan nan nan nan nan nan nan nan nan nan nan nan nan 2 11 19 19 21 23 23 27 30 33 33 34 34 36 36 38 39 43 46 46 53 60 68 68 75 79 87 87 93 99 99 115 121 132 132 157
3 7 12 11 11 8 7 14 33 33 22 6 nan nan nan nan nan nan nan 0 0 0 0 nan nan nan nan nan nan nan nan nan nan nan nan nan nan nan nan nan nan nan nan nan nan nan nan nan nan nan nan 5 14 14 16 19 19 24 28 30 30 30 32 32 32 35 37 40 45 45 50 57 65 65 71 79 81 81 90 99 99 109 115 134 134 147
5 11 13 11 11 8 7 10 35 35 20 3 1 1 nan nan nan nan nan nan nan nan nan nan nan nan nan nan nan nan nan nan nan nan nan nan nan nan nan nan nan nan nan nan nan nan nan nan nan nan nan 3 10 10 11 15 15 22 26 28 28 30 31 31 31 33 36 39 44 44 49 54 61 61 71 75 83 83 88 95 95 108 121 137 137 149
2 13 5 4 4 7 15 4 25 25 7 0 nan nan nan nan nan nan 0 nan nan nan nan nan nan nan nan nan nan nan nan nan nan nan nan nan nan nan nan nan nan nan nan nan nan nan nan nan nan nan nan 3 4 4 6 11 11 18 24 26 26 28 28 27 27 31 38 40 44 44 47 53 60 60 67 74 79 79 88 93 93 109 126 141 141 131
nan 4 3 2 2 5 13 0 1 1 4 nan nan nan nan nan nan nan nan nan nan nan nan nan nan nan nan nan nan nan nan nan nan nan nan nan nan nan nan nan nan nan nan nan nan nan nan nan nan nan nan 1 1 1 3 9 9 15 20 22 22 24 24 26 26 29 34 39 42 42 44 50 58 58 63 70 73 73 77 93 93 110 123 129 129 113
nan nan 0 0 0 3 5 nan nan nan 1 nan nan nan nan nan nan nan nan nan nan nan nan nan nan nan nan nan nan nan nan nan nan nan nan nan nan nan nan nan nan nan nan nan nan nan nan nan nan nan nan nan nan nan 1 7 7 14 17 19 19 20 23 24 24 28 31 37 40 40 43 48 53 53 58 65 67 67 76 84 84 106 119 113 113 88
1 1 7 10 10 8 nan nan nan nan 1 nan nan nan nan nan nan nan nan nan nan nan nan nan nan nan nan nan nan nan nan nan nan nan nan nan nan nan nan nan nan nan nan nan nan nan nan nan nan nan nan nan nan nan 0 5 5 10 13 16 16 18 19 22 22 24 28 32 36 36 40 45 50 50 54 58 62 62 68 80 80 98 104 91 91 63
7 12 13 15 15 34 35 54 83 83 15 0 nan nan nan nan nan nan nan nan nan nan nan nan nan nan nan nan nan nan nan nan nan nan nan 0 nan nan nan nan nan nan nan nan nan nan nan nan nan nan nan nan nan nan nan 3 3 7 9 11 11 13 16 19 19 22 26 27 31 31 35 42 47 47 50 52 59 59 68 79 79 92 94 74 74 50
25 29 36 42 42 48 59 67 82 82 94 62 4 4 nan nan nan nan nan nan nan nan nan nan nan nan nan nan nan nan nan nan nan nan nan nan nan nan nan nan nan nan nan nan nan nan nan nan nan nan nan nan nan nan nan 1 1 4 6 7 7 9 12 16 16 19 22 27 29 29 33 37 45 45 46 49 54 54 63 78 78 80 75 59 59 37
24 30 35 41 41 42 45 57 75 75 82 79 69 69 nan nan nan nan nan nan nan nan nan nan nan nan nan nan nan nan nan nan nan nan nan nan nan nan nan nan nan nan nan nan nan nan nan nan nan nan nan nan nan nan nan 0 0 1 3 4 4 6 9 13 13 18 19 22 27 27 30 34 39 39 43 46 51 51 63 69 69 75 66 35 35 5
5 10 19 27 27 23 19 22 67 67 80 72 60 60 5 nan nan nan nan nan nan nan nan nan nan nan nan nan nan nan nan nan nan nan nan nan nan nan nan nan nan nan nan nan nan nan nan nan nan nan nan nan nan nan nan nan nan nan 1 2 2 3 6 10 10 15 17 19 23 23 28 32 36 36 39 44 48 48 58 70 70 71 54 22 22 4
nan nan nan 1 1 1 0 nan 20 20 67 67 51 51 26 4 1 1 1 2 2 nan nan nan nan nan nan nan nan nan nan nan nan nan nan 0 nan nan nan nan nan nan nan nan nan nan nan nan nan nan nan nan nan nan nan nan nan nan nan 0 0 1 4 9 9 12 14 17 21 21 24 30 31 31 34 39 46 46 54 68 68 57 29 9 9 5
nan nan nan nan nan nan nan nan nan nan 20 53 35 35 8 2 3 3 1 1 1 0 nan nan nan nan nan nan nan nan nan nan nan nan 0 1 nan nan nan nan nan nan nan nan nan nan nan nan nan nan nan nan nan nan nan nan nan nan nan nan nan nan 2 7 7 9 11 15 19 19 22 24 29 29 31 35 41 41 52 62 62 52 20 11 11 6
nan nan nan nan nan nan nan nan nan nan nan nan nan nan 0 nan nan nan nan nan nan 1 1 0 0 0 0 0 nan nan nan nan nan nan 8 nan nan nan nan nan nan nan nan 0 0 0 nan nan nan nan nan nan nan nan nan nan nan nan nan nan nan nan nan 1 1 1 3 9 13 13 16 18 19 19 22 26 33 33 43 50 50 52 22 9 9 10
nan nan nan nan nan nan nan nan nan nan nan nan nan nan nan nan nan nan nan nan nan nan 0 0 0 0 nan nan nan nan nan nan nan nan 9 nan nan nan nan nan nan nan nan nan nan 0 nan nan nan nan nan nan nan nan nan nan nan nan nan nan nan nan nan nan nan nan 0 2 3 3 9 11 16 16 17 20 28 28 37 43 43 49 43 8 8 9
nan nan nan nan nan nan nan nan nan nan nan nan nan nan nan nan nan nan nan nan nan nan nan nan nan 0 0 0 nan nan nan nan nan nan 2 nan nan nan nan nan nan nan nan nan nan nan nan nan nan nan nan nan nan nan nan nan nan nan nan nan nan nan nan nan nan nan nan nan nan nan nan nan 8 8 9 16 23 23 32 37 37 42 42 23 23 12
nan nan nan nan nan nan nan nan nan nan nan nan nan nan nan nan nan nan nan nan nan nan nan nan nan nan nan 0 nan nan nan nan nan nan 1 nan nan nan nan nan nan 0 nan nan nan nan nan nan nan 0 nan nan nan nan nan nan nan nan nan nan nan nan nan nan nan nan nan nan nan nan nan nan nan nan 1 9 17 17 24 25 25 31 34 39 39 24
nan nan nan nan nan nan nan nan nan nan nan nan nan nan nan nan nan nan nan nan nan nan nan nan nan nan nan nan nan nan nan nan nan nan nan nan nan nan nan nan nan 1 0 nan nan nan nan nan nan nan nan nan nan nan nan nan nan nan nan nan nan nan nan nan nan nan nan nan nan nan nan nan nan nan 0 10 14 14 15 15 15 19 24 28 28 28
nan nan nan nan nan nan 0 0 nan nan nan nan nan nan nan nan nan nan nan nan nan nan nan nan nan nan nan nan nan nan nan nan nan nan nan nan nan nan nan nan nan 2 0 0 0 nan nan nan nan nan nan nan nan nan nan nan nan nan nan nan nan nan nan nan nan nan nan nan nan nan nan nan 0 0 1 9 7 7 8 9 9 10 16 20 20 22
nan nan nan nan nan nan nan 1 5 5 6 nan nan nan nan nan nan nan nan nan nan nan nan nan nan nan nan nan nan nan nan nan nan nan nan nan nan nan nan nan nan nan 0 nan nan nan nan nan nan nan nan nan nan nan nan nan nan nan nan nan nan nan nan nan nan nan nan nan 0 0 1 0 nan nan nan 0 nan nan nan nan nan 2 6 9 9 17
nan nan nan nan nan nan nan 0 2 2 nan nan nan nan nan nan nan nan nan nan nan nan nan nan nan nan nan nan nan nan nan nan nan nan nan nan nan nan nan nan nan nan nan nan nan nan nan nan nan nan nan nan nan nan nan nan nan nan nan nan nan nan nan nan nan nan nan nan 0 0 0 nan nan nan nan nan nan nan nan nan nan nan nan nan nan 4
nan nan nan 1 1 nan nan 0 nan nan nan nan nan nan nan nan nan nan nan nan nan nan nan nan nan nan nan nan nan nan nan nan nan nan nan nan nan nan nan nan nan nan nan nan nan nan nan nan nan nan nan nan nan nan nan nan nan nan nan nan nan nan nan nan nan nan nan nan nan nan nan nan nan nan nan nan nan nan nan nan nan nan nan nan nan nan
nan nan nan nan nan nan 0 nan nan nan nan nan nan nan nan nan nan nan nan nan nan nan nan nan nan nan nan nan nan nan nan nan nan nan nan nan nan nan nan nan nan nan nan nan nan nan nan nan nan nan nan nan nan nan nan nan nan nan 2 nan nan nan nan nan nan nan nan nan nan nan nan 0 1 1 nan 0 nan nan nan nan nan nan nan nan nan nan
1 nan nan nan nan nan nan nan nan nan 2 nan nan nan nan nan nan nan nan nan nan nan nan nan nan nan nan nan nan nan nan nan nan nan nan nan nan nan nan nan nan nan nan nan nan nan nan nan nan nan nan nan nan nan nan nan nan nan nan nan nan nan nan nan nan nan nan nan nan nan 2 0 nan nan 0 nan nan nan nan nan nan nan nan nan nan nan
nan nan nan nan nan nan nan nan nan nan 0 nan nan nan nan nan nan nan nan nan nan nan nan nan nan nan nan nan nan nan nan nan nan nan nan nan nan nan nan nan nan nan nan nan nan nan nan nan nan nan nan nan nan nan nan nan nan nan nan 0 0 0 nan nan nan nan nan nan nan nan nan nan nan nan nan nan nan nan nan nan nan 2 0 nan nan nan
nan nan nan nan nan nan nan nan nan nan nan 0 nan nan nan nan nan nan nan nan nan nan nan nan nan nan nan nan nan nan nan nan nan nan nan nan nan nan nan nan nan nan nan nan nan nan nan nan nan nan nan nan nan nan nan nan nan nan nan nan nan nan nan nan nan nan nan nan nan nan nan nan nan nan nan nan nan nan nan nan nan nan nan nan nan nan
nan nan nan 0 0 nan nan nan nan nan nan 0 nan nan nan nan nan nan nan nan nan nan nan nan nan nan nan nan nan nan nan nan nan nan nan nan 2 2 nan nan nan nan nan nan nan nan nan nan nan nan nan nan nan nan nan nan nan nan nan 0 0 0 nan nan nan nan nan nan nan nan nan nan nan nan nan nan nan nan nan nan nan nan nan nan nan nan
nan nan nan nan nan nan 1 nan nan nan nan 0 nan nan nan nan nan nan nan nan nan nan nan nan nan nan nan nan nan nan nan nan nan nan nan nan nan nan nan nan nan nan nan nan nan nan nan nan nan nan nan nan nan nan nan nan nan nan nan nan nan nan nan nan nan nan nan nan nan nan nan nan nan nan nan nan nan nan nan nan nan nan nan nan nan nan
nan nan nan nan nan 0 nan nan nan nan nan 0 nan nan nan nan nan nan nan nan nan nan nan nan nan nan nan nan nan nan nan nan nan nan nan nan nan nan nan nan nan nan nan nan nan nan nan nan nan nan nan nan nan nan nan nan nan nan nan nan nan nan nan nan nan nan nan nan nan nan nan nan nan nan nan nan nan nan nan nan nan nan nan nan nan nan
nan 0 nan 0 0 0 0 0 0 0 0 nan nan nan nan nan nan nan nan nan nan nan nan nan nan nan nan nan nan nan nan nan nan nan nan nan nan nan nan nan nan nan nan nan nan nan nan nan nan nan nan nan nan nan nan nan nan nan nan nan nan nan nan nan nan nan nan nan nan nan nan nan nan nan nan nan nan nan nan nan nan nan nan nan nan nan
nan nan 0 0 0 0 nan 0 0 0 0 0 nan nan nan nan 0 0 nan nan nan nan nan nan nan nan nan nan nan nan 0 nan nan nan nan nan nan nan nan nan nan nan nan nan nan nan nan nan nan nan nan nan nan nan nan nan nan nan nan nan nan nan nan nan nan nan nan nan nan nan nan nan nan nan 0 0 nan nan nan nan nan nan nan nan nan nan
nan nan 0 0 0 0 0 0 0 0 0 0 0 0 nan nan nan nan nan nan nan nan nan nan nan nan nan nan nan nan nan nan nan nan nan nan nan nan nan nan nan nan nan nan nan nan nan nan nan nan nan nan nan nan nan nan nan nan nan nan nan nan nan nan nan nan nan 0 nan nan nan 0 1 1 2 2 1 1 nan nan nan nan nan nan nan nan
nan nan nan nan nan 0 0 0 1 1 0 0 0 0 nan nan nan nan nan nan nan nan nan nan nan nan nan nan nan nan nan nan nan nan nan nan nan nan nan nan nan nan nan nan nan nan nan nan nan nan nan nan nan nan nan nan nan nan nan nan nan nan 0 nan nan 0 4 2 1 1 0 1 2 2 3 2 2 2 0 0 0 nan nan nan nan nan
CIN
nan nan nan nan nan nan nan nan nan nan nan nan nan nan nan nan nan nan nan nan nan nan nan nan nan nan nan nan -0 -0 -0 -0 -0 -0 -0 -0 -0 -0 -0 -0 -0 -0 -0 -0 -0 -0 -0 -0 -0 -0 -0 -0 -0 -0 -0 -0 -0 -0 -0 -0 -0 -0 -0 -0 -0 -0 -0 -0 -0 -0 -0 -0 -0 -0 -0 -0 -0 -0 -0 -0 -0 -0 -0 -0 -0 -0
nan nan nan nan nan nan nan nan nan nan nan nan nan nan nan nan nan nan nan nan nan nan nan nan nan nan nan nan -0 -0 -0 -0 -0 -0 -0 -0 -0 -0 -0 -0 -0 -0 -0 -0 -0 -0 -0 -0 -0 -0 -0 -0 -0 -0 -0 -0 -0 -0 -0 -0 -0 -0 -0 -0 -0 -0 -0 -0 -0 -0 -0 -0 -0 -0 -0 -0 -0 -0 -0 -0 -0 -0 -0 -0 -0 -0
nan nan nan nan nan nan nan nan nan nan nan nan nan nan nan nan nan nan nan nan nan nan nan nan nan nan nan nan -0 -0 -0 -0 -0 -0 -0 -0 -0 -0 -0 -0 -0 -0 -0 -0 -0 -0 -0 -0 -0 -0 -0 -0 -0 -0 -0 -0 -0 -0 -0 -0 -0 -0 -0 -0 -0 -0 -0 -0 -0 -0 -0 -0 -0 -0 -0 -0 -0 -0 -0 -0 -0 -0 -0 -0 -0 -0
nan nan nan nan nan nan nan nan nan nan nan nan nan nan nan nan nan nan nan nan nan nan nan nan nan nan nan nan -0 -0 -0 -0 -0 -0 -0 -0 -0 -0 -0 -0 -0 -0 -0 -0 -0 -0 -0 -0 -0 -0 -0 -0 -0 -0 -0 -0 -0 -0 -0 -0 -0 -0 -0 -0 -0 -0 -0 -0 -0 -0 -0 -0 -0 -0 -0 -0 -0 -0 -0 -0 -0 -0 -0 -0 -0 -0
nan nan nan nan nan nan nan nan nan nan nan nan nan nan nan nan nan nan nan nan nan nan nan nan nan nan nan nan -5 -5 -0 -0 -0 -0 -0 -0 -0 -0 -0 -0 -0 -0 -0 -0 -0 -0 -0 -0 -0 -0 -0 -0 -0 -0 -0 -0 -0 -0 -0 -0 -0 -0 -0 -0 -0 -0 -0 -0 -0 -0 -0 -0 -0 -0 -0 -0 -0 -0 -0 -0 -0 -0 -0 -0 -0 -0
nan nan nan nan nan nan nan nan nan nan nan nan nan nan nan nan nan nan nan nan nan nan nan nan nan nan nan nan -0 -0 -0 -0 -0 -0 -0 -0 -0 -0 -0 -0 -0 -0 -0 -0 -0 -0 -0 -0 -0 -0 -0 -0 -0 -0 -0 -0 -0 -0 -0 -0 -0 -0 -0 -0 -0 -0 -0 -0 -0 -0 -0 -0 -0 -0 -0 -0 -0 -0 -0 -0 -0 -0 -0 -0 -0 -0
nan nan nan nan nan nan nan nan nan nan nan nan nan nan nan nan nan nan nan nan nan nan nan nan nan nan nan nan -0 -0 -0 -0 -0 -0 -0 -0 -0 -0 -0 -0 -0 -0 -0 -0 -0 -0 -0 -0 -0 -0 -0 -0 -0 -0 -0 -0 -0 -0 -0 -0 -0 -0 -0 -0 -0 -0 -0 -0 -0 -0 -0 -0 -0 -0 -0 -0 -0 -0 -0 -0 -0 -0 -0 -0 -0 -0
nan nan nan nan nan nan nan nan nan nan nan nan nan nan nan nan nan nan nan nan nan nan nan nan nan nan nan nan nan nan nan nan nan nan nan nan -0 -0 -0 -0 -0 -0 -0 -0 -0 -0 -0 -0 -0 -0 -0 -0 -0 -0 -0 -0 -0 -0 -0 -0 -0 -0 -0 -0 -0 -0 -0 -0 -0 -0 -0 -0 -0 -0 -0 -0 -0 -0 -0 -0 -0 -0 -0 -0 -0 -0
nan nan nan nan nan nan nan nan nan nan nan nan nan nan nan nan nan nan nan nan nan nan nan nan nan nan nan nan nan nan nan nan nan nan nan nan nan nan -0 -0 -0 -0 -0 -0 -0 -0 -0 -0 -0 -0 -0 -0 -0 -0 -0 -0 -0 -0 -0 -0 -0 -0 -0 -0 -0 -0 -0 -0 -0 -0 -0 -0 -0 -0 -0 -0 -0 -0 -0 -0 -0 -0 -0 -0 -0 -0
nan nan nan nan nan nan nan -6 nan nan nan nan nan nan nan nan -1 -1 -1 nan nan nan -19 nan nan nan nan nan nan nan nan nan nan nan -0 nan -0 -0 -0 -0 -0 -0 -0 -0 -0 -0 -0 -0 -0 -0 -0 -0 -0 -0 -0 -0 -0 -0 -0 -0 -0 -0 -0 -0 -0 -0 -0 -0 -0 -0 -0 -0 -0 -0 -0 -0 -0 -0 -0 -0 -0 -0 -0 -0 -0 -0
nan nan nan nan nan nan nan nan nan nan nan nan nan nan nan nan -2 -2 -0 -2 -2 -9 -9 nan nan nan nan nan nan nan nan nan nan nan nan nan nan nan nan -0 -0 -0 -0 -0 -0 -0 -0 -0 -0 -0 -0 -0 -0 -0 -0 -0 -0 -0 -0 -0 -0 -0 -0 -0 -0 -0 -0 -0 -0 -0 -0 -0 -0 -0 -0 -0 -0 -0 -0 -0 -0 -0 -0 -0 -0 -0
nan nan nan nan nan nan -7 nan nan nan nan nan -8 -8 -4 -11 -5 -5 -2 -1 -1 -1 -2 nan nan nan nan nan nan nan nan nan nan nan nan nan nan nan nan nan nan nan -3 -0 -0 -0 -0 -0 -0 -0 -0 -0 -0 -0 -0 -0 -0 -0 -0 -0 -0 -0 -0 -0 -0 -0 -0 -0 -0 -0 -0 -0 -0 -0 -0 -0 -0 -0 -0 -0 -0 -0 -0 -0 -0 -0
nan nan nan nan nan -2 -2 -5 -9 -9 -3 -1 -0 -0 -0 -3 -7 -7 -3 -4 -4 -2 -6 nan nan nan nan nan nan nan nan nan nan nan nan nan nan nan nan nan nan nan nan nan nan nan -0 -0 -0 -0 -0 -0 -0 -0 -0 -0 -0 -0 -0 -0 -0 -0 -0 -0 -0 -0 -0 -0 -0 -0 -0 -0 -0 -0 -0 -0 -0 -0 -0 -0 -0 -0 -0 -0 -0 -0
nan nan nan nan nan -5 -2 -2 -1 -1 -1 -1 -1 -1 -2 -7 -14 -14 nan nan nan -6 -7 nan nan nan nan nan nan nan nan nan nan nan nan nan nan nan nan nan nan nan nan nan nan nan nan nan nan nan -0 -0 -0 -0 -0 -0 -0 -0 -0 -0 -0 -0 -0 -0 -0 -0 -0 -0 -0 -0 -0 -0 -0 -0 -0 -0 -0 -0 -0 -0 -0 -0 -0 -0 -0 -0
-0 -1 -2 -3 -3 -4 -1 -1 -1 -1 -1 -1 -3 -3 -6 -15 nan nan nan -4 -4 -5 nan nan nan nan nan nan nan nan nan nan nan nan nan nan nan nan nan nan nan nan nan nan nan nan nan nan nan nan nan nan -0 -0 -0 -0 -0 -0 -0 -0 -0 -0 -0 -0 -0 -0 -0 -0 -0 -0 -0 -0 -0 -0 -0 -0 -0 -0 -0 -0 -0 -0 -0 -0 -0 -0
-0 -0 -0 -1 -1 -0 -1 -1 -1 -1 -1 -2 -3 -3 -15 nan nan nan nan nan nan nan nan nan nan nan nan nan nan nan nan nan nan nan nan nan nan nan nan nan nan nan nan nan nan nan nan nan nan nan nan -0 -0 -0 -0 -0 -0 -0 -0 -0 -0 -0 -0 -0 -0 -0 -0 -0 -0 -0 -0 -0 -0 -0 -0 -0 -0 -0 -0 -0 -0 -0 -0 -0 -0 -0
-0 -0 -0 -1 -1 -0 -0 -1 -1 -1 -1 -2 -2 -2 nan nan nan nan nan nan nan nan nan nan nan nan nan nan nan nan nan nan nan nan nan nan nan nan nan nan nan nan nan nan nan nan nan nan nan nan nan -0 -0 -0 -0 -0 -0 -0 -0 -0 -0 -0 -0 -0 -0 -0 -0 -0 -0 -0 -0 -0 -0 -0 -0 -0 -0 -0 -0 -0 -0 -0 -0 -0 -0 -0
-0 -0 -0 -0 -0 -0 -1 -1 -1 -1 -1 -1 -14 -14 nan nan nan nan nan nan nan -0 -0 nan nan nan nan nan nan nan nan nan nan nan nan nan nan nan nan nan nan nan nan nan nan nan nan nan nan nan nan -0 -0 -0 -0 -0 -0 -0 -0 -0 -0 -0 -0 -0 -0 -0 -0 -0 -0 -0 -0 -0 -0 -0 -0 -0 -0 -0 -0 -0 -0 -0 -0 -0 -0 -0
-0 -0 -0 -0 -0 -1 -2 -2 -1 -1 -0 -0 nan nan nan nan nan nan nan -0 -0 -0 -0 -0 -0 nan nan nan nan nan nan nan nan nan nan nan nan nan nan nan nan nan nan nan nan nan nan nan nan nan -0 -0 -0 -0 -0 -0 -0 -0 -0 -0 -0 -0 -0 -0 -0 -0 -0 -0 -0 -0 -0 -0 -0 -0 -0 -0 -0 -0 -0 -0 -0 -0 -0 -0 -0 -0
-0 -0 -0 -0 -0 -1 -3 -2 -0 -0 -0 -0 nan nan nan nan nan nan nan -2 -2 -1 -1 nan nan nan nan nan nan nan nan nan nan nan nan nan nan nan nan nan nan nan nan nan nan nan nan nan nan nan nan -0 -0 -0 -0 -0 -0 -0 -0 -0 -0 -0 -0 -0 -0 -0 -0 -0 -0 -0 -0 -0 -0 -0 -0 -0 -0 -0 -0 -0 -0 -0 -0 -0 -0 -0
-1 -0 -0 -0 -0 -2 -3 -5 -0 -0 -0 -0 -1 -1 nan nan nan nan nan nan nan nan nan nan nan nan nan nan nan nan nan nan nan nan nan nan nan nan nan nan nan nan nan nan nan nan nan nan nan nan nan -0 -0 -0 -0 -0 -0 -0 -0 -0 -0 -0 -0 -0 -0 -0 -0 -0 -0 -0 -0 -0 -0 -0 -0 -0 -0 -0 -0 -0 -0 -0 -0 -0 -0 -0
-4 -0 -6 -11 -11 -4 -1 -15 -0 -0 -0 -1 nan nan nan nan nan nan -3 nan nan nan nan nan nan nan nan nan nan nan nan nan nan nan nan nan nan nan nan nan nan nan nan nan nan nan nan nan nan nan nan -0 -0 -0 -0 -0 -0 -0 -0 -0 -0 -0 -0 -0 -0 -0 -0 -0 -0 -0 -0 -0 -0 -0 -0 -0 -0 -0 -0 -0 -0 -0 -0 -0 -0 -0
nan -5 -12 -19 -19 -12 -8 -30 -10 -10 -0 nan nan nan nan nan nan nan nan nan nan nan nan nan nan nan nan nan nan nan nan nan nan nan nan nan nan nan nan nan nan nan nan nan nan nan nan nan nan nan nan -0 -0 -0 -0 -0 -0 -0 -0 -0 -0 -0 -0 -0 -0 -0 -0 -0 -0 -0 -0 -0 -0 -0 -0 -0 -0 -0 -0 -0 -0 -0 -0 -0 -0 -0
nan nan -26 -27 -27 -23 -21 nan nan nan -0 nan nan nan nan nan nan nan nan nan nan nan nan nan nan nan nan nan nan nan nan nan nan nan nan nan nan nan nan nan nan nan nan nan nan nan nan nan nan nan nan nan nan nan -0 -0 -0 -0 -0 -0 -0 -0 -0 -0 -0 -0 -0 -0 -0 -0 -0 -0 -0 -0 -0 -0 -0 -0 -0 -0 -0 -0 -0 -0 -0 -0
-23 -23 -13 -14 -14 -15 nan nan nan nan -0 nan nan nan nan nan nan nan nan nan nan nan nan nan nan nan nan nan nan nan nan nan nan nan nan nan nan nan nan nan nan nan nan nan nan nan nan nan nan nan nan nan nan nan -0 -0 -0 -0 -0 -0 -0 -0 -0 -0 -0 -0 -0 -0 -0 -0 -0 -0 -0 -0 -0 -0 -0 -0 -0 -0 -0 -0 -0 -0 -0 -0
-8 -5 -8 -8 -8 -0 -0 -0 -0 -0 -0 -14 nan nan nan nan nan nan nan nan nan nan nan nan nan nan nan nan nan nan nan nan nan nan nan -2 nan nan nan nan nan nan nan nan nan nan nan nan nan nan nan nan nan nan nan -0 -0 -0 -0 -0 -0 -0 -0 -0 -0 -0 -0 -0 -0 -0 -0 -0 -0 -0 -0 -0 -0 -0 -0 -0 -0 -0 -0 -0 -0 -0
-0 -0 -0 -0 -0 -0 -0 -0 -0 -0 -0 -0 -12 -12 nan nan nan nan nan nan nan nan nan nan nan nan nan nan nan nan nan nan nan nan nan nan nan nan nan nan nan nan nan nan nan nan nan nan nan nan nan nan nan nan nan -0 -0 -0 -0 -0 -0 -0 -0 -0 -0 -0 -0 -0 -0 -0 -0 -0 -0 -0 -0 -0 -0 -0 -0 -0 -0 -0 -0 -0 -0 -0
-0 -0 -0 -0 -0 -0 -0 -0 -0 -0 -0 -0 -0 -0 nan nan nan nan nan nan nan nan nan nan nan nan nan nan nan nan nan nan nan nan nan nan nan nan nan nan nan nan nan nan nan nan nan nan nan nan nan nan nan nan nan -0 -0 -0 -0 -0 -0 -0 -0 -0 -0 -0 -0 -0 -0 -0 -0 -0 -0 -0 -0 -0 -0 -0 -0 -0 -0 -0 -0 -0 -0 -0
-0 -0 -0 -0 -0 -0 -0 -0 -0 -0 -0 -0 -0 -0 -0 nan nan nan nan nan nan nan nan nan nan nan nan nan nan nan nan nan nan nan nan nan nan nan nan nan nan nan nan nan nan nan nan nan nan nan nan nan nan nan nan nan nan nan -0 -0 -0 -0 -0 -0 -0 -0 -0 -0 -0 -0 -0 -0 -0 -0 -0 -0 -0 -0 -0 -0 -0 -0 -0 -0 -0 -1
nan nan nan -0 -0 -0 -0 nan -0 -0 -0 -0 -0 -0 -0 -0 -0 -0 -0 -0 -0 nan nan nan nan nan nan nan nan nan nan nan nan nan nan -1 nan nan nan nan nan nan nan nan nan nan nan nan nan nan nan nan nan nan nan nan nan nan nan -0 -0 -0 -0 -0 -0 -0 -0 -0 -0 -0 -0 -0 -0 -0 -0 -0 -0 -0 -0 -0 -0 -0 -0 -2 -2 -2
nan nan nan nan nan nan nan nan nan nan -0 -0 -0 -0 -0 -1 -0 -0 -0 -0 -0 -0 nan nan nan nan nan nan nan nan nan nan nan nan -8 -0 nan nan nan nan nan nan nan nan nan nan nan nan nan nan nan nan nan nan nan nan nan nan nan nan nan nan -0 -0 -0 -0 -0 -0 -0 -0 -0 -0 -0 -0 -0 -0 -0 -0 -0 -0 -0 -0 -3 -3 -3 -3
nan nan nan nan nan nan nan nan nan nan nan nan nan nan -1 nan nan nan nan nan nan -0 -0 -0 -0 -0 -0 -0 nan nan nan nan nan nan -0 nan nan nan nan nan nan nan nan -3 -3 -0 nan nan nan nan nan nan nan nan nan nan nan nan nan nan nan nan nan -0 -0 -0 -0 -0 -0 -0 -0 -0 -0 -0 -0 -0 -0 -0 -0 -0 -0 -0 -0 -3 -3 -1
nan nan nan nan nan nan nan nan nan nan nan nan nan nan nan nan nan nan nan nan nan nan -0 -0 -0 -0 nan nan nan nan nan nan nan nan -0 nan nan nan nan nan nan nan nan nan nan -1 nan nan nan nan nan nan nan nan nan nan nan nan nan nan nan nan nan nan nan nan -0 -0 -0 -0 -0 -0 -0 -0 -0 -0 -0 -0 -0 -0 -0 -0 -0 -4 -4 -1
nan nan nan nan nan nan nan nan nan nan nan nan nan nan nan nan nan nan nan nan nan nan nan nan nan -0 -0 -0 nan nan nan nan nan nan -0 nan nan nan nan nan nan nan nan nan nan nan nan nan nan nan nan nan nan nan nan nan nan nan nan nan nan nan nan nan nan nan nan nan nan nan nan nan -0 -0 -0 -0 -0 -0 -0 -0 -0 -0 -0 -0 -0 -0
nan nan nan nan nan nan nan nan nan nan nan nan nan nan nan nan nan nan nan nan nan nan nan nan nan nan nan -0 nan nan nan nan nan nan -0 nan nan nan nan nan nan -0 nan nan nan nan nan nan nan -0 nan nan nan nan nan nan nan nan nan nan nan nan nan nan nan nan nan nan nan nan nan nan nan nan -0 -0 -0 -0 -0 -0 -0 -0 -0 -0 -0 -0
nan nan nan nan nan nan nan nan nan nan nan nan nan nan nan nan nan nan nan nan nan nan nan nan nan nan nan nan nan nan nan nan nan nan nan nan nan nan nan nan nan -0 -0 nan nan nan nan nan nan nan nan nan nan nan nan nan nan nan nan nan nan nan nan nan nan nan nan nan nan nan nan nan nan nan -0 -0 -0 -0 -0 -0 -0 -0 -0 -0 -0 -0
nan nan nan nan nan nan -5 -9 nan nan nan nan nan nan nan nan nan nan nan nan nan nan nan nan nan nan nan nan nan nan nan nan nan nan nan nan nan nan nan nan nan -0 -0 -0 -0 nan nan nan nan nan nan nan nan nan nan nan nan nan nan nan nan nan nan nan nan nan nan nan nan nan nan nan -0 -0 -0 -0 -0 -0 -0 -0 -0 -0 -0 -0 -0 -0
nan nan nan nan nan nan nan -5 -0 -0 -0 nan nan nan nan nan nan nan nan nan nan nan nan nan nan nan nan nan nan nan nan nan nan nan nan nan nan nan nan nan nan nan -2 nan nan nan nan nan nan nan nan nan nan nan nan nan nan nan nan nan nan nan nan nan nan nan nan nan -0 -0 -0 -0 nan nan nan -0 nan nan nan nan nan -0 -0 -0 -0 -0
nan nan nan nan nan nan nan -5 -2 -2 nan nan nan nan nan nan nan nan nan nan nan nan nan nan nan nan nan nan nan nan nan nan nan nan nan nan nan nan nan nan nan nan nan nan nan nan nan nan nan nan nan nan nan nan nan nan nan nan nan nan nan nan nan nan nan nan nan nan -0 -0 -0 nan nan nan nan nan nan nan nan nan nan nan nan nan nan -0
nan nan nan -0 -0 nan nan -5 nan nan nan nan nan nan nan nan nan nan nan nan nan nan nan nan nan nan nan nan nan nan nan nan nan nan nan nan nan nan nan nan nan nan nan nan nan nan nan nan nan nan nan nan nan nan nan nan nan nan nan nan nan nan nan nan nan nan nan nan nan nan nan nan nan nan nan nan nan nan nan nan nan nan nan nan nan nan
nan nan nan nan nan nan -4 nan nan nan nan nan nan nan nan nan nan nan nan nan nan nan nan nan nan nan nan nan nan nan nan nan nan nan nan nan nan nan nan nan nan nan nan nan nan nan nan nan nan nan nan nan nan nan nan nan nan nan -0 nan nan nan nan nan nan nan nan nan nan nan nan -0 -0 -0 nan -0 nan nan nan nan nan nan nan nan nan nan
-0 nan nan nan nan nan nan nan nan nan -9 nan nan nan nan nan nan nan nan nan nan nan nan nan nan nan nan nan nan nan nan nan nan nan nan nan nan nan nan nan nan nan nan nan nan nan nan nan nan nan nan nan nan nan nan nan nan nan nan nan nan nan nan nan nan nan nan nan nan nan -0 -0 nan nan -1 nan nan nan nan nan nan nan nan nan nan nan
nan nan nan nan nan nan nan nan nan nan -7 nan nan nan nan nan nan nan nan nan nan nan nan nan nan nan nan nan nan nan nan nan nan nan nan nan nan nan nan nan nan nan nan nan nan nan nan nan nan nan nan nan nan nan nan nan nan nan nan -1 -1 -1 nan nan nan nan nan nan nan nan nan nan nan nan nan nan nan nan nan nan nan -0 -0 nan nan nan
nan nan nan nan nan nan nan nan nan nan nan -4 nan nan nan nan nan nan nan nan nan nan nan nan nan nan nan nan nan nan nan nan nan nan nan nan nan nan nan nan nan nan nan nan nan nan nan nan nan nan nan nan nan nan nan nan nan nan nan nan nan nan nan nan nan nan nan nan nan nan nan nan nan nan nan nan nan nan nan nan nan nan nan nan nan nan
nan nan nan -7 -7 nan nan nan nan nan nan -4 nan nan nan nan nan nan nan nan nan nan nan nan nan nan nan nan nan nan nan nan nan nan nan nan -0 -0 nan nan nan nan nan nan nan nan nan nan nan nan nan nan nan nan nan nan nan nan nan -0 -0 -2 nan nan nan nan nan nan nan nan nan nan nan nan nan nan nan nan nan nan nan nan nan nan nan nan
nan nan nan nan nan nan -1 nan nan nan nan -4 nan nan nan nan nan nan nan nan nan nan nan nan nan nan nan nan nan nan nan nan nan nan nan nan nan nan nan nan nan nan nan nan nan nan nan nan nan nan nan nan nan nan nan nan nan nan nan nan nan nan nan nan nan nan nan nan nan nan nan nan nan nan nan nan nan nan nan nan nan nan nan nan nan nan
nan nan nan nan nan -3 nan nan nan nan nan -4 nan nan nan nan nan nan nan nan nan nan nan nan nan nan nan nan nan nan nan nan nan nan nan nan nan nan nan nan nan nan nan nan nan nan nan nan nan nan nan nan nan nan nan nan nan nan nan nan nan nan nan nan nan nan nan nan nan nan nan nan nan nan nan nan nan nan nan nan nan nan nan nan nan nan
nan -4 nan -5 -5 -5 -6 -4 -5 -5 -4 nan nan nan nan nan nan nan nan nan nan nan nan nan nan nan nan nan nan nan nan nan nan nan nan nan nan nan nan nan nan nan nan nan nan nan nan nan nan nan nan nan nan nan nan nan nan nan nan nan nan nan nan nan nan nan nan nan nan nan nan nan nan nan nan nan nan nan nan nan nan nan nan nan nan nan
nan nan -6 -5 -5 -6 nan -6 -5 -5 -4 -4 nan nan nan nan -0 -0 nan nan nan nan nan nan nan nan nan nan nan nan -0 nan nan nan nan nan nan nan nan nan nan nan nan nan nan nan nan nan nan nan nan nan nan nan nan nan nan nan nan nan nan nan nan nan nan nan nan nan nan nan nan nan nan nan -4 -3 nan nan nan nan nan nan nan nan nan nan
nan nan -6 -5 -5 -4 -5 -4 -4 -4 -4 -3 -4 -4 nan nan nan nan nan nan nan nan nan nan nan nan nan nan nan nan nan nan nan nan nan nan nan nan nan nan nan nan nan nan nan nan nan nan nan nan nan nan nan nan nan nan nan nan nan nan nan nan nan nan nan nan nan -7 nan nan nan -9 -7 -7 -4 -1 -3 -3 nan nan nan nan nan nan nan nan
nan nan nan nan nan -4 -5 -5 -3 -3 -3 -2 -2 -2 nan nan nan nan nan nan nan nan nan nan nan nan nan nan nan nan nan nan nan nan nan nan nan nan nan nan nan nan nan nan nan nan nan nan nan nan nan nan nan nan nan nan nan nan nan nan nan nan -4 nan nan -3 -0 -2 -7 -7 -9 -7 -5 -5 -3 -1 -1 -1 -4 -4 -4 nan nan nan nan nan
Wind_Speed
2 2 2 3 3 3 3 3 3 4 4 4 5 5 5 6 6 6 7 7 6 5 5 5 5 6 7 11 14 16 17 18 18 18 18 18 18 18 19 19 20 21 21 22 22 22 22 22 22 21 21 21 20 20 20 21 21 21 21 21 22 22 22 23 23 24 24 24 25 25 25 25 25 24 24 23 23 23 23 22 22 22 21 21 20 19
2 2 3 3 3 3 3 3 3 3 4 4 4 5 5 5 5 5 5 6 6 5 5 4 4 5 6 8 13 16 18 18 18 18 18 18 19 19 19 20 21 21 22 22 22 22 22 21 21 21 20 20 20 20 20 21 21 22 22 22 22 22 22 22 23 23 23 23 24 24 24 24 24 23 22 22 21 21 21 20 20 20 20 19 19 18
2 3 3 3 2 2 2 3 3 2 3 3 4 4 4 4 4 4 4 5 5 5 4 4 4 4 5 7 11 16 18 18 18 18 18 19 19 20 20 21 21 22 22 22 22 21 21 21 20 20 20 20 20 21 21 21 22 22 22 22 22 22 22 22 22 22 22 23 23 23 23 23 23 22 21 21 20 20 20 20 20 20 20 19 19 19
2 2 3 2 2 1 2 2 2 2 2 3 3 3 2 2 3 3 3 4 4 5 4 4 4 4 4 6 9 13 17 18 18 18 19 19 19 20 21 21 22 22 22 21 21 21 20 20 20 20 20 20 21 21 21 22 22 22 22 22 22 22 22 22 22 22 22 22 22 22 22 22 22 21 21 20 20 20 21 21 21 21 21 21 21 21
2 2 3 2 2 2 2 2 2 2 2 3 3 3 2 2 2 2 3 3 4 4 5 4 4 4 4 5 8 12 16 18 18 18 19 19 20 20 21 21 22 21 21 21 20 20 20 20 20 20 21 21 21 21 22 22 22 22 21 21 21 21 21 21 21 21 21 22 22 22 21 21 21 21 21 21 21 21 22 22 23 23 23 24 24 23
2 2 2 1 1 2 2 1 1 2 2 2 2 2 2 2 2 2 3 3 4 4 4 4 4 4 5 5 8 12 15 16 17 18 19 19 20 21 21 21 21 21 20 19 19 19 19 20 20 20 21 21 21 21 21 21 21 21 21 21 21 21 21 21 21 21 21 21 21 21 21 21 21 21 21 21 21 22 22 23 23 24 24 24 25 25
2 2 1 1 1 1 1 1 1 2 2 2 2 2 2 2 2 2 3 3 3 3 3 3 4 4 5 6 8 10 12 13 15 16 17 19 20 20 21 21 20 20 19 19 19 19 19 20 20 21 21 21 21 21 21 21 21 20 20 20 20 20 20 20 21 21 21 21 21 21 21 21 21 22 22 22 22 22 22 23 23 23 24 24 24 25
2 2 1 1 1 1 1 2 2 2 2 2 2 2 2 2 2 3 3 3 3 3 3 3 4 4 5 6 7 7 7 8 9 11 13 15 16 17 18 19 19 18 18 18 19 19 20 20 21 21 21 21 21 21 20 20 20 20 20 20 20 20 20 20 20 20 21 21 21 21 21 21 22 22 22 22 22 22 23 23 23 23 24 24 24 24
2 2 2 1 1 1 2 2 2 2 2 2 2 3 3 3 3 3 3 3 3 4 4 4 4 4 4 4 5 5 6 7 7 8 9 10 11 13 15 16 16 17 18 18 19 19 20 20 21 21 21 21 20 20 20 20 20 20 20 20 20 20 20 20 20 20 21 21 21 21 21 22 22 22 22 22 22 22 22 23 23 23 23 23 23 24
1 2 2 2 1 1 1 2 2 2 1 1 2 2 2 3 5 5 5 5 4 4 4 5 5 5 5 4 4 5 6 8 9 11 12 12 13 14 15 14 14 15 17 17 18 19 20 20 21 21 20 20 20 20 20 20 19 19 20 20 20 20 20 20 20 20 21 21 21 21 21 22 22 22 22 22 22 22 22 22 22 22 22 23 23 23
2 2 2 2 2 1 1 2 2 2 2 2 2 2 2 3 5 7 8 7 6 6 5 5 5 6 5 4 4 4 5 6 8 9 11 13 14 15 15 14 14 14 16 16 17 18 19 20 20 20 20 20 20 20 19 19 19 19 19 20 20 20 20 20 20 20 21 21 21 21 21 21 21 21 22 22 22 22 22 22 22 22 22 22 22 22
2 2 2 2 2 2 2 2 2 2 2 3 3 3 3 3 4 6 7 8 8 7 7 6 5 5 4 4 4 4 5 5 6 7 7 8 10 10 10 10 10 11 12 12 13 15 17 19 19 19 19 19 19 19 19 19 19 19 19 19 20 20 20 20 20 20 20 21 21 21 21 21 21 21 21 21 21 21 21 21 21 22 22 22 22 22
2 2 2 2 3 3 3 3 3 3 3 4 5 5 5 5 5 5 5 6 7 7 7 7 6 5 3 2 2 3 5 6 6 6 6 6 6 6 6 6 6 6 6 7 7 9 13 16 17 17 18 18 18 19 19 19 19 19 19 19 19 19 20 20 20 20 20 20 20 20 21 21 21 21 21 21 21 21 21 21 21 21 22 22 22 22
2 2 3 3 3 3 3 3 3 4 4 4 4 5 5 5 5 5 5 6 6 6 6 6 6 5 3 2 2 3 4 5 6 6 6 6 5 5 4 5 5 5 4 4 5 7 11 11 11 12 15 16 17 18 18 18 19 19 19 19 19 19 19 20 20 20 20 20 20 20 20 21 21 21 21 21 21 21 21 21 21 22 22 22 22 22
3 3 3 3 3 3 3 4 4 4 4 4 4 4 4 4 4 5 5 6 6 6 5 5 5 5 3 2 2 3 4 5 5 6 7 6 5 4 4 4 4 5 4 5 6 7 9 8 7 7 9 12 14 16 17 17 18 19 19 19 19 19 19 19 20 20 20 20 20 20 20 21 21 21 21 21 21 21 21 21 21 22 22 22 22 22
3 3 3 3 3 3 3 3 3 3 3 4 4 4 4 4 4 4 4 5 6 5 5 5 5 4 3 3 3 3 4 5 5 6 7 6 5 4 3 4 5 5 5 5 6 6 6 6 6 6 7 12 15 17 19 18 18 19 19 19 19 20 20 20 20 20 20 20 21 21 21 21 21 21 21 21 21 21 21 21 21 22 22 22 22 22
2 2 3 3 3 3 4 4 3 3 3 3 3 3 3 3 4 4 4 5 5 4 4 5 5 4 4 4 3 3 4 4 5 5 6 6 5 4 3 4 5 6 6 6 5 5 5 5 5 6 7 13 16 18 19 19 19 19 19 20 20 20 20 20 20 20 21 21 21 21 21 21 21 21 21 21 21 21 21 21 22 22 22 22 22 22
2 2 3 3 3 3 4 4 4 3 2 2 2 2 3 3 3 3 3 4 4 4 4 4 4 3 4 4 4 4 4 4 5 5 6 6 6 5 3 4 4 5 6 6 5 5 5 5 5 7 10 15 18 19 19 19 19 19 20 20 20 20 20 20 21 21 21 21 21 21 21 21 21 21 21 21 21 21 21 22 22 22 22 22 22 22
3 3 3 3 3 3 3 4 4 3 3 3 2 2 3 3 3 3 3 3 4 4 4 4 3 3 3 4 5 5 4 4 4 5 6 7 6 5 4 4 5 6 6 5 5 4 4 4 7 10 15 17 19 19 19 19 19 20 20 20 20 20 21 21 21 21 21 20 20 21 21 21 21 21 21 21 21 22 22 22 22 22 22 22 22 22
2 2 3 2 3 3 3 3 3 3 3 3 2 2 2 3 3 3 4 4 3 3 3 3 4 3 3 4 5 5 4 4 4 4 6 6 6 6 5 5 6 6 6 5 4 4 4 4 6 9 14 16 17 19 19 19 20 20 20 20 20 21 21 21 21 21 20 20 20 20 21 21 21 21 21 21 22 22 22 22 22 22 22 22 22 21
2 2 2 2 2 2 3 3 3 3 3 3 2 2 2 2 3 3 4 4 4 4 3 3 3 3 3 4 5 5 4 4 4 4 5 5 5 5 5 5 5 6 6 6 5 5 5 5 5 7 10 14 17 18 19 20 20 20 20 21 21 21 21 21 21 21 20 20 20 21 21 21 21 21 21 21 22 22 22 22 22 22 22 22 22 21
2 2 2 2 2 2 3 3 3 3 4 3 2 2 2 2 2 3 3 4 4 4 4 4 4 4 4 4 5 5 4 2 2 3 5 5 6 6 5 5 5 6 6 6 6 6 6 5 5 6 10 14 17 18 19 20 20 20 21 21 21 21 21 21 21 21 21 21 21 21 21 21 21 21 21 22 22 22 22 22 22 22 22 22 21 21
2 2 3 3 2 2 3 4 2 1 3 2 2 2 1 1 1 2 2 3 3 3 4 4 4 4 3 4 4 4 3 2 1 2 4 6 7 7 6 6 6 6 6 6 7 7 7 6 6 6 9 14 16 18 19 20 20 21 21 21 21 21 21 21 21 21 21 21 21 21 21 21 21 21 22 22 22 22 22 22 22 23 22 21 21 20
2 2 2 3 2 3 3 3 1 1 2 1 1 1 0 1 1 2 3 3 3 3 4 3 3 3 3 3 4 4 3 1 1 2 4 5 6 6 6 6 7 7 7 7 7 7 7 6 6 5 6 10 14 16 19 20 21 21 21 21 21 21 21 21 21 21 21 21 21 21 21 21 21 21 22 22 22 22 22 22 22 22 22 21 20 20
2 2 2 3 4 4 4 4 3 2 3 2 1 1 1 2 2 2 3 2 3 3 3 3 3 4 3 4 3 3 3 1 1 2 4 5 6 6 5 5 6 7 7 7 7 7 7 6 6 5 4 7 11 15 18 20 21 21 21 21 22 22 21 21 21 21 21 21 22 22 21 21 21 21 22 22 22 22 22 22 22 22 22 20 19 19
5 5 5 6 7 8 9 9 9 7 5 4 3 2 2 2 3 3 2 3 3 4 5 4 4 4 4 4 4 3 3 2 1 2 3 4 6 6 5 5 5 6 8 7 7 7 7 7 6 4 3 5 8 13 17 19 20 21 21 21 22 22 21 21 21 21 21 22 22 21 21 21 21 21 22 22 22 22 22 22 22 22 21 19 18 17
10 10 10 11 11 12 13 13 13 12 11 10 8 6 4 3 3 4 4 5 5 5 5 5 5 5 5 4 4 4 4 3 2 2 3 4 5 5 5 5 6 7 8 7 7 7 8 7 5 4 4 4 5 9 15 18 19 20 21 21 21 21 21 21 21 21 22 22 21 21 21 21 21 22 22 22 22 22 22 22 22 21 20 17 15 14
12 12 12 13 13 13 14 14 14 14 14 13 13 11 7 4 4 5 5 5 5 5 4 4 5 5 5 5 4 4 3 3 2 3 3 4 4 5 5 5 6 6 7 7 7 7 7 6 4 4 4 4 5 7 12 16 17 18 19 20 21 21 21 21 21 22 22 21 21 21 21 21 21 22 22 22 22 22 22 22 22 20 17 14 10 9
12 12 12 13 13 13 13 12 13 13 14 14 13 12 8 5 5 5 5 5 5 4 4 5 5 4 4 5 4 4 3 2 3 3 4 5 4 4 5 5 6 6 7 7 6 5 4 3 3 2 3 5 6 7 9 11 13 14 15 18 19 20 20 21 21 22 21 21 21 21 21 21 21 22 22 22 22 22 22 22 21 17 12 10 8 8
8 9 9 10 10 10 9 8 9 11 13 14 13 11 8 5 5 4 5 5 5 4 4 5 5 5 5 5 5 4 2 2 3 4 6 5 5 5 5 6 6 6 6 7 6 6 4 3 2 1 3 6 7 7 7 8 8 9 10 13 15 16 19 20 21 21 21 21 21 21 21 21 21 22 22 22 22 22 22 22 19 14 9 8 7 7
6 6 5 6 6 6 6 5 6 7 9 10 10 9 8 6 5 5 5 5 5 4 4 4 5 5 5 5 4 4 3 3 4 6 6 5 5 5 6 6 6 6 5 5 5 6 6 5 3 3 4 6 7 6 6 6 7 7 7 8 10 12 16 19 19 19 19 20 20 20 21 21 21 21 21 22 22 22 22 22 19 14 8 7 7 7
4 5 4 4 4 4 4 4 5 5 5 6 6 6 7 6 5 4 4 4 4 4 4 5 5 5 5 4 3 3 3 3 5 7 7 5 4 4 5 5 6 5 4 4 4 4 5 6 6 6 6 6 6 6 6 6 6 6 7 8 8 9 14 16 16 16 16 17 18 19 20 20 20 21 21 21 21 22 22 22 20 15 9 8 7 8
4 4 4 4 4 4 4 4 4 4 4 4 4 5 5 6 6 5 4 3 3 3 4 4 5 5 5 5 4 3 3 3 5 7 8 5 4 4 4 5 5 6 5 4 4 3 4 5 6 7 7 6 6 5 5 6 6 7 7 8 7 8 12 12 12 12 13 14 14 15 17 18 19 19 20 20 21 21 22 22 21 18 13 9 8 8
4 4 4 4 4 4 4 4 3 4 4 4 5 5 5 5 5 5 5 4 3 3 2 3 4 5 5 5 4 4 3 3 5 7 7 4 3 4 4 5 5 6 6 5 4 4 4 5 6 7 7 6 5 4 4 5 6 6 6 7 7 7 9 9 9 9 10 11 10 10 12 13 14 16 17 18 19 20 21 22 21 20 18 13 10 9
4 4 4 4 4 4 4 4 4 4 4 4 5 5 6 5 5 5 5 4 4 3 2 2 2 3 4 4 4 4 4 4 5 7 7 3 2 3 4 4 5 5 5 5 5 4 4 6 7 7 7 7 6 4 4 4 5 6 6 6 6 6 7 7 7 8 9 9 9 9 8 9 10 11 13 16 18 19 21 21 21 21 20 18 15 11
4 4 4 4 4 4 4 4 4 4 4 4 4 5 5 5 5 5 4 4 4 4 4 3 3 3 3 3 4 5 5 5 6 6 6 2 1 2 3 4 5 5 5 5 5 5 5 6 7 8 8 7 6 5 5 5 5 6 6 7 7 7 6 6 6 7 7 8 9 9 8 8 9 10 11 15 18 19 20 20 20 20 20 20 18 16
4 4 4 4 3 4 4 4 4 4 4 4 4 5 5 5 5 5 5 4 4 4 4 5 4 4 4 4 4 5 5 5 5 5 4 1 1 1 2 3 4 5 5 5 5 6 6 6 7 7 7 6 5 6 6 7 7 7 7 7 7 6 6 6 6 6 7 8 9 9 9 9 9 10 11 15 17 17 18 18 18 18 19 19 19 18
4 4 4 3 3 3 4 4 4 4 4 4 4 4 5 5 5 5 5 5 5 5 4 4 4 5 7 7 6 6 6 6 5 4 3 1 1 1 1 3 4 4 4 5 5 5 6 6 7 7 6 5 6 6 7 8 8 8 8 8 7 6 5 5 5 6 7 8 9 10 10 10 9 9 10 11 11 11 11 12 13 14 16 16 17 17
4 4 4 4 4 4 4 4 4 4 4 4 4 4 4 5 5 5 4 4 4 4 4 4 4 5 6 8 8 8 7 6 5 4 2 1 1 1 1 3 4 4 4 4 4 5 5 5 5 6 6 6 7 7 6 6 7 8 9 9 7 6 5 5 6 6 7 8 9 10 10 9 8 8 8 9 9 9 9 9 10 11 12 11 11 13
4 4 4 5 5 4 4 4 4 4 4 4 4 4 5 5 5 5 4 4 4 4 3 3 3 4 5 6 6 7 7 5 4 3 2 1 2 1 1 2 4 4 5 4 4 4 5 5 6 6 6 6 7 7 7 6 6 8 10 9 7 7 8 7 6 6 6 7 8 9 9 9 9 9 8 8 8 8 8 8 8 9 10 9 8 9
4 4 4 4 4 4 4 4 4 4 4 4 3 4 4 5 6 6 6 6 6 5 5 5 4 4 3 4 4 5 5 4 4 3 2 2 2 2 2 2 3 4 5 4 4 4 4 5 6 6 6 6 7 8 8 7 8 9 10 9 8 9 10 8 7 6 7 7 8 9 10 10 10 10 10 9 8 7 7 7 8 8 9 7 7 7
5 4 4 4 4 4 4 4 4 5 4 3 3 4 4 5 6 6 7 8 8 7 7 7 7 6 5 4 4 4 4 4 4 3 3 3 3 3 3 3 4 4 5 5 5 4 4 5 5 6 5 5 5 6 6 7 7 8 8 8 9 10 10 8 6 6 7 8 8 9 10 10 10 10 10 10 9 8 7 7 8 9 9 7 6 5
4 4 3 3 3 4 4 4 5 5 4 4 3 4 4 4 5 5 6 7 7 8 8 7 6 6 6 5 4 4 3 3 3 3 3 3 3 4 4 4 5 4 4 4 5 5 4 5 5 5 5 4 4 5 6 7 8 7 7 8 9 9 7 7 7 7 8 8 8 8 9 9 9 10 10 9 8 7 7 8 9 10 10 8 6 5
3 3 3 3 3 3 3 4 4 4 4 4 4 4 4 4 4 5 6 6 6 7 7 6 6 5 5 6 6 5 4 3 3 3 3 4 5 6 6 6 5 5 3 3 4 5 5 5 4 4 4 4 4 5 6 7 7 7 7 8 8 8 7 7 8 9 9 8 8 7 8 9 10 10 10 9 8 7 6 6 6 7 8 7 6 5
3 3 3 3 3 4 4 4 4 4 4 5 5 4 4 4 5 5 6 6 6 6 6 6 6 6 6 6 7 6 5 4 3 3 3 5 7 9 7 6 6 5 4 4 4 4 4 5 5 5 4 3 4 4 6 7 7 7 8 8 8 8 8 8 8 9 9 9 9 8 9 10 10 10 10 9 8 8 7 7 7 7 6 6 5 5
3 3 3 3 4 5 5 5 4 4 5 5 5 5 4 4 4 5 6 6 6 6 6 5 5 5 6 7 7 7 7 6 6 5 4 4 5 5 6 6 6 6 5 5 5 4 4 5 5 5 4 4 4 4 5 5 6 7 8 8 9 8 8 8 8 8 8 9 9 10 10 11 10 10 9 9 9 8 7 6 6 6 6 6 6 6
4 4 4 4 4 5 5 5 5 5 6 6 6 5 5 4 5 5 6 6 6 6 6 6 5 5 5 6 6 7 8 8 8 7 7 6 6 6 6 6 7 7 6 6 6 6 6 6 5 4 3 3 3 4 4 4 4 6 7 8 8 8 8 8 8 8 8 9 9 10 11 11 10 9 10 9 9 8 7 6 6 5 6 6 6 6
4 4 4 4 4 5 5 5 5 6 6 6 6 5 5 5 6 7 6 6 6 6 6 6 6 6 6 5 5 6 8 8 8 8 8 8 8 8 8 7 7 6 6 6 6 6 6 6 6 5 4 3 3 3 4 3 4 5 6 7 8 8 8 8 8 8 8 9 10 11 11 10 9 9 10 10 9 9 8 7 6 5 5 5 5 6
4 4 4 4 5 5 5 5 6 6 6 7 7 6 5 5 7 7 5 5 5 5 6 6 7 7 6 6 6 7 8 8 7 7 8 8 8 9 9 9 8 7 6 5 5 5 4 5 5 5 5 5 4 3 4 4 4 5 5 6 7 7 8 8 9 9 9 10 11 11 10 9 8 8 9 9 10 10 10 8 7 6 5 5 6 6
4 4 4 4 5 5 5 6 6 6 6 7 7 7 6 5 5 5 5 5 5 5 5 5 6 6 7 7 7 7 8 8 7 7 8 8 8 8 9 9 10 9 8 7 6 5 4 4 3 3 5 5 4 3 3 4 5 6 6 6 6 7 8 9 9 9 10 10 10 10 10 9 8 7 7 9 10 10 10 9 8 8 7 6 7 7
4 4 4 4 4 5 5 5 6 6 7 7 7 7 6 5 5 6 5 6 6 6 5 5 5 6 7 7 7 7 8 8 8 8 8 8 8 8 9 9 9 10 9 9 8 8 7 6 5 4 3 3 2 3 3 5 6 7 7 7 7 7 8 8 9 10 10 10 10 9 9 9 8 8 8 8 9 10 10 10 10 9 9 8 8 8
Wind_Direction
306 313 333 1 0 349 332 343 355 358 349 344 343 343 346 349 347 345 348 351 351 349 349 348 345 344 345 348 348 347 345 343 341 339 338 336 335 335 335 336 337 338 337 337 336 335 334 333 332 332 333 334 335 336 337 338 339 339 338 337 335 333 331 329 327 324 322 320 319 318 317 317 318 319 321 322 324 324 324 324 323 323 322 322 322 322
323 328 334 356 1 351 319 324 337 351 346 339 337 339 341 342 341 343 348 349 349 348 346 342 341 342 344 343 344 344 343 342 341 339 339 338 338 338 339 340 340 339 338 337 335 334 333 333 333 335 336 337 338 339 339 339 338 337 336 334 333 331 329 327 325 323 321 320 319 319 319 319 320 321 322 324 324 324 323 321 320 319 318 318 318 318
331 332 326 337 345 342 312 314 318 329 336 329 328 330 333 336 339 342 345 345 344 342 339 339 340 343 342 340 341 342 342 342 342 341 341 341 342 342 342 342 341 339 337 336 335 334 334 335 336 338 339 340 340 339 338 338 337 335 334 333 331 329 327 325 323 322 321 320 320 321 321 322 322 323 324 325 324 323 321 319 318 317 315 314 314 313
325 323 314 318 321 313 290 295 303 312 322 321 321 324 329 335 336 335 336 338 337 335 331 333 339 344 343 337 337 340 342 343 344 345 345 345 345 344 343 342 340 338 336 336 335 336 336 338 339 341 341 341 340 339 338 337 336 335 333 332 330 328 326 324 323 322 321 322 322 323 323 324 325 325 326 326 325 323 322 320 319 317 316 315 315 314
310 301 295 306 308 301 281 282 294 311 319 321 322 322 324 322 321 324 330 337 336 333 329 332 338 343 342 335 337 341 345 347 348 348 349 348 347 345 343 341 339 338 337 337 337 338 339 341 342 342 341 341 340 339 339 338 336 335 333 331 329 327 325 324 323 323 323 323 323 324 325 326 326 327 327 327 326 325 323 322 320 319 318 318 318 318
298 287 285 292 295 292 292 294 312 326 327 325 323 320 318 314 316 324 334 339 337 331 326 328 332 336 337 335 342 347 349 350 351 351 350 349 347 345 342 340 339 338 338 339 340 341 342 343 342 342 341 340 340 339 339 337 336 334 332 330 328 326 325 325 324 324 324 324 325 325 326 327 327 327 327 327 326 325 323 322 321 320 320 320 319 319
298 290 293 296 296 295 302 308 327 340 342 331 327 324 321 323 328 334 335 334 331 326 324 325 331 335 336 337 345 351 353 352 351 351 351 349 346 344 341 340 340 340 340 341 342 343 344 343 342 341 341 340 340 339 339 337 335 333 332 330 329 328 327 327 326 326 326 326 326 327 327 327 327 327 326 326 325 324 323 322 321 320 320 320 319 319
306 305 316 321 321 319 312 311 328 346 355 342 336 332 330 336 338 336 332 332 332 332 332 333 336 338 336 336 344 351 353 350 349 348 349 348 345 342 340 340 340 340 340 341 342 343 343 342 342 341 341 341 340 340 338 337 335 333 332 331 330 330 329 329 329 328 328 328 328 328 327 327 327 326 326 325 324 323 322 322 321 321 320 320 320 319
306 309 312 313 318 323 322 317 329 349 0 352 342 336 333 338 339 338 338 339 341 341 341 339 337 336 334 335 341 347 348 347 346 346 347 345 343 340 339 338 338 339 339 340 341 341 342 341 341 341 341 341 340 339 338 336 335 333 332 332 332 331 331 331 330 330 329 329 329 328 328 327 327 326 326 325 324 323 323 322 322 321 321 320 320 319
301 299 298 299 303 319 329 325 327 336 358 356 341 330 330 337 341 343 344 344 344 344 343 339 336 333 332 338 342 343 343 343 344 344 344 341 338 336 336 335 336 336 336 338 339 339 340 340 341 341 341 341 340 339 337 335 334 333 332 332 333 333 333 332 332 331 331 330 330 329 329 328 327 326 326 325 324 323 323 322 322 321 320 320 319 317
310 299 301 306 311 322 334 327 322 322 341 344 337 329 331 346 348 346 343 341 341 342 342 339 334 331 332 337 340 340 341 341 342 343 342 338 336 334 333 332 331 331 333 335 336 337 338 339 340 341 341 340 339 337 335 334 333 332 332 333 334 334 334 333 333 332 332 331 331 330 329 328 328 327 326 325 324 323 322 322 321 320 319 318 317 315
315 314 321 322 328 335 342 332 322 320 333 343 346 347 356 3 359 351 342 337 336 337 338 336 332 329 328 332 335 338 342 342 340 338 336 334 332 331 329 329 328 329 331 333 334 335 336 337 338 339 338 337 336 334 332 331 331 332 332 333 334 334 335 334 334 333 332 332 331 330 329 328 327 326 325 324 323 322 321 321 320 319 318 316 315 314
324 330 337 337 342 346 346 337 333 338 350 355 356 355 355 358 356 349 338 333 333 334 335 333 329 326 323 325 337 343 345 340 336 332 331 329 326 324 322 322 323 325 328 329 330 330 333 335 336 335 334 333 331 330 329 329 330 331 333 334 335 335 335 334 334 333 332 331 330 329 328 327 327 325 324 323 322 322 321 320 319 318 317 316 315 313
345 346 347 347 348 348 346 342 343 350 359 0 359 356 352 349 346 342 335 332 332 333 333 331 328 323 321 323 339 347 347 338 332 329 328 325 319 315 314 316 318 321 324 325 324 325 328 331 331 330 330 328 327 326 326 328 330 332 333 334 335 335 335 334 334 333 332 331 330 329 328 327 326 325 324 323 322 322 321 320 319 319 317 316 315 314
357 353 353 350 349 348 348 344 348 355 2 358 354 350 346 344 343 341 338 335 334 335 335 331 326 322 317 311 324 342 349 338 332 328 326 321 315 308 309 316 319 322 327 327 324 322 325 326 324 321 321 322 322 324 327 329 332 333 334 335 335 335 334 334 333 333 332 331 330 329 328 327 326 325 324 324 323 323 322 321 320 319 318 317 316 315
2 357 351 347 349 351 350 344 345 351 358 355 352 350 347 344 344 343 341 337 337 338 339 336 332 327 319 309 319 337 348 340 332 325 322 318 314 311 318 328 329 328 329 327 323 320 321 320 318 316 314 320 324 327 330 332 334 335 335 335 335 335 335 334 334 333 332 332 331 330 329 328 327 326 325 325 324 324 323 322 321 320 319 318 317 316
4 358 350 348 351 353 350 341 339 344 354 355 355 354 348 341 340 342 345 343 342 343 344 341 337 332 324 318 322 334 348 340 330 321 318 316 315 319 332 338 333 327 326 324 320 317 317 318 317 316 316 323 327 330 332 334 335 336 336 336 336 335 335 335 334 334 333 332 331 330 329 328 327 327 326 326 326 325 325 324 323 322 321 321 320 319
7 0 352 353 355 353 347 338 336 341 357 0 356 349 340 337 337 341 348 349 347 346 342 338 333 327 320 317 316 321 341 339 329 319 317 317 318 323 335 338 331 325 322 319 316 314 314 315 318 320 321 327 330 332 334 336 337 337 337 336 336 336 336 335 335 334 333 332 331 330 329 328 328 328 328 328 327 327 326 326 325 324 323 323 322 321
9 3 1 0 357 350 343 335 336 343 2 4 355 343 341 339 339 341 350 353 350 344 336 329 321 313 307 301 301 307 327 335 327 319 319 319 321 324 334 336 331 325 320 318 315 313 314 313 317 321 323 327 330 332 335 337 338 338 337 337 337 337 336 336 335 334 333 332 331 330 330 329 329 329 329 329 329 328 328 328 327 326 325 324 323 323
8 2 6 358 351 344 340 333 336 347 10 7 356 342 339 337 338 343 351 350 345 336 326 318 310 302 291 291 296 303 319 333 331 323 320 319 320 324 333 336 331 325 321 318 316 317 319 317 318 320 323 327 330 334 337 338 338 338 338 337 337 337 337 336 335 334 333 332 331 331 331 331 331 331 331 331 331 330 330 329 329 328 327 326 326 327
1 357 356 346 342 341 339 328 332 350 24 18 4 350 353 341 342 345 349 343 337 331 325 315 301 287 277 286 292 299 313 330 331 325 321 320 321 326 335 336 331 325 322 321 322 324 325 322 318 317 320 326 331 334 337 338 338 338 338 338 338 338 337 337 336 335 334 333 332 332 332 333 333 333 332 332 332 332 332 331 331 330 329 330 331 333
355 346 335 329 330 333 330 314 321 356 48 33 19 8 1 346 341 341 341 336 330 326 320 304 288 277 272 276 282 289 302 313 317 315 319 321 324 328 334 334 330 326 325 325 326 327 326 322 316 314 318 325 330 335 337 338 338 338 339 339 339 339 338 337 337 336 335 334 334 334 334 334 334 334 334 334 334 334 334 333 332 332 332 334 337 339
343 335 327 325 324 321 316 303 310 29 75 59 39 25 0 318 293 300 309 311 308 303 296 281 275 274 271 269 275 281 288 268 268 298 321 324 325 326 331 333 332 329 327 326 325 325 323 319 315 313 315 326 331 334 337 337 338 339 339 339 339 339 339 338 337 337 336 336 336 336 336 336 336 336 336 336 336 336 335 334 334 334 335 339 342 343
345 341 332 328 326 321 313 305 308 104 113 105 69 38 16 239 239 247 263 269 274 278 284 285 294 300 290 282 281 284 284 268 270 314 333 327 324 324 328 333 332 329 325 324 323 322 319 315 311 308 310 324 330 334 336 337 338 339 339 340 340 339 339 339 338 338 337 337 338 338 338 337 337 337 337 337 337 337 337 336 335 336 339 343 345 344
8 2 354 353 354 353 346 347 17 78 128 143 117 36 5 316 290 276 268 271 281 292 304 320 329 327 314 313 311 307 301 299 327 346 347 329 321 321 325 332 332 328 323 322 321 319 316 311 309 308 309 322 329 333 335 337 338 339 340 340 340 340 339 339 339 338 339 339 339 339 339 338 338 338 338 338 338 338 338 337 337 339 342 345 346 343
29 27 24 22 18 13 8 10 23 42 70 75 69 47 12 337 326 325 330 337 335 333 335 336 335 331 324 328 327 324 318 323 346 3 354 329 321 320 324 335 334 328 321 320 320 318 314 310 309 311 314 318 326 331 334 336 337 338 339 339 339 340 339 339 339 339 339 339 339 339 339 339 339 339 339 340 340 339 339 338 339 341 344 346 345 341
33 33 33 31 28 23 17 16 19 26 34 37 38 35 21 352 345 351 358 354 349 345 344 342 337 332 330 333 331 326 322 330 343 352 346 328 321 320 327 336 335 328 322 319 317 314 309 306 306 308 311 308 315 325 333 335 336 337 338 339 339 339 339 339 339 339 340 340 340 339 340 340 340 340 340 340 341 340 340 340 341 343 345 346 344 339
31 33 33 32 30 27 22 18 17 20 25 28 28 27 22 6 359 0 358 348 342 341 342 340 335 332 331 331 325 318 315 324 329 333 336 330 324 322 328 334 334 330 324 318 313 307 302 296 294 297 301 307 317 325 331 333 334 336 337 338 338 338 338 338 339 339 340 340 340 340 340 340 340 341 341 341 341 341 341 341 342 344 346 345 341 334
23 24 25 26 25 24 20 16 15 17 21 24 24 23 20 12 4 359 348 340 338 339 338 337 334 330 325 321 315 312 310 315 328 337 343 336 328 325 329 334 336 334 330 322 315 308 296 281 276 285 302 321 327 330 329 331 332 333 334 336 337 337 337 338 338 339 339 339 339 340 340 340 341 341 341 341 341 341 341 342 343 344 345 342 337 331
11 13 13 14 15 15 14 11 11 13 16 19 20 20 17 13 7 0 349 344 343 341 335 333 330 329 326 323 322 320 318 324 343 352 352 341 333 329 332 335 337 338 338 331 325 321 314 296 282 298 323 330 331 329 326 327 329 330 331 334 334 335 336 337 338 339 339 339 339 339 340 340 340 341 341 341 341 341 341 342 343 344 343 337 333 329
360 2 -0 359 360 2 5 6 7 8 10 12 14 16 15 13 8 4 356 351 347 342 335 330 329 330 331 330 328 325 320 328 349 358 355 343 332 328 332 332 333 338 343 338 332 325 319 315 318 329 339 333 329 325 324 325 328 330 331 331 331 332 334 336 337 338 338 338 338 339 340 340 340 340 340 340 340 340 341 342 343 344 340 335 330 329
358 1 359 354 354 356 3 5 4 1 1 1 5 9 12 10 7 4 359 353 347 342 336 331 328 328 329 326 318 309 304 314 340 351 353 343 330 324 329 328 329 331 336 335 325 315 310 312 317 325 332 329 325 322 322 325 328 331 332 331 329 329 332 334 335 336 336 337 338 338 339 339 339 339 339 339 339 339 340 341 342 343 340 335 330 327
2 5 4 359 357 356 359 358 356 356 359 355 359 5 11 6 3 359 355 350 345 340 336 331 328 326 324 316 306 295 290 298 329 344 352 345 331 322 326 327 327 327 327 325 314 300 291 300 308 314 318 319 318 318 319 324 328 331 332 331 328 326 329 332 333 334 333 334 335 336 337 337 337 338 338 338 338 338 339 340 341 341 340 335 331 327
6 9 11 2 355 350 350 349 351 354 0 0 4 7 7 2 357 353 349 345 339 332 325 321 320 321 321 315 309 300 291 293 320 336 351 348 332 320 324 327 327 326 326 323 316 307 294 298 304 308 311 312 313 314 316 323 329 331 329 327 324 323 325 328 329 329 330 332 332 333 334 335 335 336 336 336 336 336 337 338 339 339 339 337 333 329
8 11 12 3 353 346 346 348 351 356 3 6 8 8 5 358 352 346 342 337 331 322 302 286 286 295 304 307 307 304 299 297 317 332 345 345 330 317 321 327 330 329 326 322 319 315 307 305 306 308 309 311 312 313 316 322 326 327 323 322 320 319 320 322 323 324 326 329 330 331 332 331 332 333 333 333 333 334 335 336 336 337 337 336 335 331
8 10 9 3 355 350 351 355 356 359 4 7 7 5 1 354 347 339 333 327 322 317 311 296 278 264 257 267 279 287 290 294 309 323 336 335 318 306 316 325 329 328 324 321 320 317 312 308 308 309 310 311 312 314 318 324 326 325 323 322 320 318 315 317 318 321 324 328 330 330 330 330 330 330 329 330 331 331 332 333 333 334 334 334 333 331
10 8 6 359 353 351 355 358 359 1 4 3 3 1 356 347 339 331 322 317 313 310 310 306 299 291 281 258 251 258 272 283 296 309 324 312 260 266 308 316 323 326 321 318 317 316 313 311 310 310 310 308 310 314 320 326 328 328 326 324 321 318 315 315 317 321 324 328 328 328 328 328 328 327 325 327 329 330 330 330 330 331 331 331 330 329
15 10 2 356 353 353 355 356 358 359 358 356 355 353 348 338 329 320 313 309 304 301 302 303 303 302 302 295 284 272 271 277 284 291 302 256 206 222 295 307 315 317 314 310 309 310 311 311 312 312 310 307 307 310 316 322 325 324 322 319 316 313 312 315 319 323 327 327 327 326 326 326 325 324 323 326 328 328 328 328 328 328 329 328 327 327
15 8 0 359 359 359 356 355 352 349 343 340 342 343 339 334 327 319 309 303 299 295 289 286 288 292 296 295 294 292 289 288 289 289 282 226 205 220 283 306 310 310 306 302 300 300 300 301 303 305 307 308 309 311 314 317 319 319 318 318 318 318 319 321 324 326 328 327 326 325 325 324 323 322 322 324 326 325 324 323 324 325 326 324 323 323
15 10 3 2 0 357 354 351 345 338 328 328 332 337 339 340 340 336 329 324 319 313 301 291 283 280 284 287 290 292 294 295 295 292 272 222 206 215 257 293 303 307 308 301 295 292 290 289 290 291 294 299 304 308 312 313 314 316 319 321 323 324 325 325 326 326 328 326 325 324 322 322 322 323 323 323 322 321 319 318 318 318 319 319 318 320
13 8 2 357 353 350 349 345 338 330 321 325 335 343 347 349 348 346 343 343 342 340 335 330 325 315 302 292 287 285 286 286 286 282 259 237 229 231 245 273 292 302 306 301 293 285 281 282 284 286 287 291 296 299 301 302 306 310 316 317 315 314 316 318 321 324 327 325 324 323 322 322 322 322 321 319 316 312 309 307 307 308 310 311 314 316
12 6 359 352 348 345 343 339 334 329 323 328 339 349 351 352 350 347 345 345 344 343 343 343 341 337 330 318 304 294 289 285 284 280 270 255 245 245 256 276 291 301 304 301 294 285 273 273 276 280 281 284 290 295 297 297 300 305 311 310 310 310 310 314 320 325 326 324 322 322 323 322 321 320 318 316 312 307 304 302 302 305 307 308 309 308
6 1 352 346 342 337 335 338 337 334 330 336 343 348 349 350 349 348 346 343 341 338 339 339 336 332 328 327 326 321 310 296 289 287 285 273 267 270 284 292 297 299 300 300 298 293 281 275 272 270 269 268 275 284 292 298 302 305 307 310 314 318 318 321 324 326 323 321 321 320 321 320 318 315 313 311 308 305 302 301 301 302 304 302 300 299
358 354 346 344 341 337 336 343 342 338 335 340 343 344 342 345 348 349 348 342 337 335 336 335 332 330 330 332 333 333 330 318 308 301 298 313 321 324 320 312 304 295 288 286 290 294 297 291 281 271 263 259 266 276 286 293 299 304 308 313 315 316 312 313 317 320 320 319 318 318 318 317 315 312 310 308 307 306 305 302 300 298 297 294 293 293
353 351 347 349 348 347 348 347 342 338 337 343 343 340 338 342 349 352 351 343 337 335 335 336 336 337 339 337 336 334 335 335 336 333 320 330 336 337 331 322 314 306 297 283 275 278 288 292 290 285 277 268 265 269 278 287 295 302 308 314 315 312 305 306 311 315 317 317 317 317 317 316 314 312 309 309 309 309 307 305 303 300 298 297 296 294
357 355 353 353 355 355 354 347 342 341 344 345 344 342 339 343 348 352 352 346 340 335 334 338 343 343 339 336 335 335 336 338 340 342 340 337 334 331 328 326 323 319 310 297 282 269 263 267 274 281 289 287 276 267 266 277 290 301 309 315 316 314 310 310 312 314 315 315 315 315 316 316 314 311 309 309 309 308 306 302 300 299 299 299 299 298
2 2 359 358 357 356 350 347 347 348 350 347 345 343 343 344 348 350 351 347 342 336 335 339 343 343 335 333 335 337 338 338 338 339 339 340 339 338 336 332 328 322 313 305 295 282 266 257 254 254 263 277 281 275 266 271 288 303 311 315 315 315 313 313 314 315 315 315 314 315 316 316 315 312 308 307 307 306 306 305 301 297 296 298 299 301
1 1 1 359 357 354 351 350 351 352 351 346 343 342 346 351 355 354 348 345 341 339 340 343 342 339 335 334 337 340 341 338 337 336 337 339 340 340 341 337 332 325 316 308 300 291 279 265 249 234 216 221 248 272 285 292 302 308 311 312 313 313 312 312 314 316 315 314 313 313 315 315 313 310 309 308 308 308 310 310 308 304 299 299 301 304
356 358 1 359 358 356 353 351 352 352 350 346 342 341 344 351 356 356 348 343 341 342 344 343 340 337 335 337 340 343 344 341 338 336 337 339 339 340 340 338 336 332 325 317 309 298 286 273 253 229 200 198 216 252 285 298 306 309 309 310 311 313 312 313 314 316 316 314 313 312 312 309 306 305 305 307 308 309 310 311 311 310 309 307 306 306
354 359 3 359 359 357 353 351 351 352 351 346 343 340 341 348 352 352 347 344 343 343 343 340 337 334 335 339 343 346 346 343 340 339 339 340 340 341 340 340 340 338 336 334 333 330 322 312 292 254 217 211 217 247 295 310 314 314 313 314 315 316 315 314 315 316 317 315 314 313 312 309 308 308 308 308 308 308 310 311 313 314 317 315 312 309
357 1 4 0 357 355 351 348 350 351 351 347 344 342 343 346 346 346 346 346 345 342 339 337 334 334 337 342 345 346 346 343 340 339 339 340 340 341 341 342 343 343 342 342 343 343 344 341 338 323 273 249 284 340 338 326 322 321 320 321 323 322 319 315 314 314 316 315 315 314 314 315 316 317 317 313 311 310 311 313 315 316 318 318 315 311